This demonstration page uses our WeatherBlox Daily Observations layout. Learn more.

Left ArrowRight Arrow

38.88101, -77.10428

Hourly Observations for April 30, 2021

Temp ( °F °C ) Dew Point ( °F °C ) Humidity (%) Winds ( mph kmh ) Pressure ( in mb ) Visibility ( mi km ) Precip ( " mm )
12:52 am 00:52 Cloudy 70 21.1 62 16.7 76 76 W 9 15 29.59 1002 10 16 0.00 0.00
1:52 am 01:52 Cloudy 69 20.6 58 14.4 68 68 W 13 20 29.60 1002 10 16 0.00 0.00
2:52 am 02:52 Cloudy 69 20.6 53 11.7 57 57 WNW 20 31 29.61 1003 10 16 0.00 0.00
3:52 am 03:52 Cloudy 67 19.4 50 10 55 55 WNW 13 20 29.65 1004 10 16 0.00 0.00
4:52 am 04:52 Mostly Cloudy 65 18.3 47 8.3 52 52 WNW 16 26 29.67 1005 10 16 0.00 0.00
5:52 am 05:52 Mostly Clear 63 17.2 46 7.8 54 54 NW 23 37 29.67 1005 10 16 0.00 0.00
6:52 am 06:52 Mostly Sunny 63 17.2 43 6.1 48 48 WNW 22 35 29.72 1007 10 16 0.00 0.00
7:52 am 07:52 Mostly Sunny 63 17.2 43 6.1 48 48 W 15 24 29.74 1007 10 16 0.00 0.00
8:52 am 08:52 Mostly Sunny 65 18.3 42 5.6 43 43 WNW 17 28 29.73 1007 10 16 0.00 0.00
9:52 am 09:52 Mostly Sunny 66 18.9 42 5.6 42 42 NW 21 33 29.73 1007 10 16 0.00 0.00
10:52 am 10:52 Mostly Cloudy 68 20 40 4.4 36 36 WNW 24 39 29.72 1007 10 16 0.00 0.00
11:52 am 11:52 Mostly Cloudy 69 20.6 38 3.3 32 32 NW 22 35 29.71 1006 10 16 0.00 0.00
12:52 pm 12:52 Mostly Cloudy 71 21.7 36 2.2 28 28 NW 25 41 29.70 1006 10 16 0.00 0.00
1:52 pm 13:52 Mostly Sunny 72 22.2 33 0.6 24 24 W 20 31 29.70 1006 10 16 0.00 0.00
2:52 pm 14:52 Partly Cloudy 73 22.8 30 -1.1 20 20 WNW 24 39 29.69 1006 10 16 0.00 0.00
3:52 pm 15:52 Partly Cloudy 70 21.1 32 0 25 25 NW 29 46 29.68 1005 10 16 0.00 0.00
4:52 pm 16:52 Mostly Cloudy 69 20.6 32 0 25 25 NW 28 44 29.72 1006 10 16 0.00 0.00
5:52 pm 17:52 Mostly Cloudy 62 16.7 38 3.3 41 41 NNW 31 50 29.77 1008 10 16 0.00 0.00
6:52 pm 18:52 Cloudy with Light Rain 57 13.9 37 2.8 47 47 WNW 22 35 29.82 1010 10 16 0.00 0.00
7:52 pm 19:52 Partly Cloudy 56 13.3 36 2.2 47 47 WNW 17 28 29.83 1010 10 16 0.00 0.00
8:52 pm 20:52 Mostly Clear 54 12.2 36 2.2 51 51 WNW 22 35 29.85 1011 10 16 0.00 0.00
9:52 pm 21:52 Clear 54 12.2 35 1.7 49 49 WNW 15 24 29.88 1012 10 16 0.00 0.00
10:52 pm 22:52 Clear 54 12.2 28 -2.2 37 37 NNW 26 43 29.92 1013 10 16 0.00 0.00
11:52 pm 23:52 Clear 52 11.1 18 -7.8 26 26 NW 22 35 29.93 1014 10 16 0.00 0.00

Powered by AerisWeather